Location: Saint Peter Port
(49.4500°N, 2.5330°W)
Time: 21:53:30
(UTC+01:00)

Cosmos 2242 Rocket - Visible Passes

Search period start: 29 July 2014 00:00
Search period end: 08 August 2014 00:00
Orbit: 620 x 654 km, 82.5° (Epoch: 29 July)

Date Brightness Start Highest point End Pass type
(mag) Time Alt. Az. Time Alt. Az. Time Alt. Az.
29 Jul 5.6 04:14:14 10° SSE 04:18:04 28° E 04:21:55 10° NNE visible
30 Jul 4.5 04:36:23 10° S 04:40:48 53° E 04:45:13 10° NNE visible
31 Jul 6.4 03:24:05 10° ESE 03:26:06 13° E 03:28:07 10° NE visible
31 Jul 3.7 04:59:07 10° SSW 05:03:40 80° W 05:08:13 10° N visible
01 Aug 5.7 03:45:02 10° SE 03:48:40 24° E 03:52:17 10° NE visible
02 Aug 4.6 04:07:02 10° SSE 04:11:22 45° E 04:15:40 10° NNE visible
03 Aug 6.4 02:55:29 10° E 02:56:43 11° E 02:57:57 10° ENE visible
03 Aug 3.7 04:29:39 10° S 04:34:12 89° E 04:38:44 10° N visible
04 Aug 5.8 03:15:52 10° SE 03:19:15 21° E 03:22:37 10° NE visible
04 Aug 4.0 04:52:48 10° SSW 04:57:10 47° WNW 05:01:32 10° N visible
05 Aug 4.8 03:37:59 12° SSE 03:41:55 39° E 03:46:06 10° NNE visible
06 Aug 3.7 04:01:08 16° S 04:04:43 77° E 04:09:13 10° NNE visible
07 Aug 5.9 02:46:46 10° SE 02:49:50 18° E 02:52:54 10° NE visible
07 Aug 3.9 04:24:15 16° SSW 04:27:40 54° WNW 04:32:05 10° N visible
